Regional Weather Roundup
Issued by NWS Midland/Odessa, TX

Home | Current Version | Previous Version | Text Only | Print | Product List | Glossary On
Versions: 1 2 3 4 5 6 7 8 9 10 11 12 13 14 15 16 17 18 19 20 21 22 23 24 25 26 27 28 29 30 31 32 33 34 35 36 37 38 39 40 41 42 43 44 45 46 47 48 49 50
000
ASUS44 KMAF 252310
RWRMAF
MIDLAND AREA WEATHER ROUNDUP
NATIONAL WEATHER SERVICE MIDLAND TX
600 PM CDT FRI JUL 25 2014

...IN SOUTHWEST TEXAS AND SOUTHEAST NEW MEXICO...

CITY           SKY/WX    TMP DP  RH WIND       PRES   REMARKS
ALPINE         SUNNY     92  47  21 E3        30.13F
ANDREWS        FAIR      97  45  16 S3G16     30.00F
ARTESIA        SUNNY     99  46  16 S12       29.98F
BIG SPRING     SUNNY    100  49  18 SE5       29.98F
CARLSBAD       PTSUNNY  100  44  14 NE6       29.96F
DRYDEN           N/A    100  58  24 E12G17    29.93F
FORT STOCKTON  SUNNY     95  49  20 SE7G21    29.98F
GUAD PASS      SUNNY     89  44  20 E12       30.17F
HOBBS          SUNNY     95  45  17 E9        30.02F
MARFA          SUNNY     90  45  20 E6        30.13F
MIDLAND AIRPK  SUNNY     98  48  18 SW5       29.98F
MIDLAND INTL   SUNNY     97  52  21 S8        29.98F
ODESSA         SUNNY     97  46  17 S13       29.99F
PECOS          SUNNY    101  47  16 E9        29.93F
PRESIDIO       MOCLDY    98  53  22 SE10G18   29.94F
SEMINOLE       SUNNY     98  41  14 SW7       30.01F
SNYDER         SUNNY     98  51  20 S7        29.96F
WINK           SUNNY     99  48  17 VRB6      29.94F
$$
...OTHER STATIONS IN TEXAS...

CITY           SKY/WX    TMP DP  RH WIND       PRES   REMARKS
ABILENE        SUNNY     96  58  27 S10G20    29.95F
AMARILLO       SUNNY     99  54  22 S18G28    29.98F
AUSTIN         MOSUNNY   96  66  37 S8        29.92F
BROWNSVILLE    SUNNY     91  72  53 SE17G25   29.94F
CORPUS CHRISTI MOSUNNY   82  74  76 SE10      29.94F
DALLAS FTW     MOSUNNY   99  63  30 S14       29.90F HX 101
DEL RIO        MOSUNNY  100  64  30 SE12      29.86F HX 102
EL PASO        MOSUNNY   98  44  15 CALM      30.00F
HOUSTON INT    MOSUNNY   92  73  53 VRB6      29.94S HX 100
LUBBOCK        MOSUNNY   98  48  18 S14G21    29.99F
SAN ANGELO     MOSUNNY   98  58  26 SE12G20   29.93F
SAN ANTONIO    MOSUNNY   94  66  39 S8        29.94F
WACO           SUNNY     96  66  37 S8        29.92F
WICHITA FALLS  NOT AVBL
$$
...OTHER LOCATIONS IN NEW MEXICO...

CITY           SKY/WX    TMP DP  RH WIND       PRES   REMARKS
ALAMAGORDO     SUNNY     97  45  16 NW5       30.02F
ALBUQUERQUE    MOSUNNY   96  40  14 W9        30.08F
CANNON AFB     SUNNY     98  51  20 S15G23    30.03F
CLOVIS         NOT AVBL
HOLLOMAN AFB   SUNNY     98  41  14 N6        29.99F
ROSWELL        SUNNY    101  46  15 SE16G24   29.98F
RUIDOSO        MOSUNNY   84  41  21 MISG      30.27F
SANTA FE       MOSUNNY   90  43  19 N6        30.16F
TRUTH OR CONSE SUNNY     96  39  13 VRB3      30.05F
TUCUMCARI      SUNNY    103  42  12 SW20      29.95F
$$


USA.gov is the U.S. government's official web portal to all federal, state and local government web resources and services.